Wind_Speed
1 1 2 3 3 2 2 2 2 2 2 2 2 2 2 2 2 1 1 1 2 2 2 3 3 3 3 3 3 3 3 4 4 4 3 3 4 4 4 5 4 5 5
2 2 2 2 2 2 2 2 2 2 2 2 2 2 2 1 1 0 0 1 2 2 3 3 3 3 4 4 4 4 5 5 5 5 5 5 5 5 6 6 6 6 7
1 2 3 3 3 3 3 3 3 3 3 3 3 3 2 2 1 1 2 2 2 3 4 4 4 4 5 5 6 6 6 6 6 6 7 7 7 7 7 7 7 8 8
1 2 2 3 3 3 3 3 4 4 4 3 3 3 3 3 2 2 3 3 3 4 4 5 5 6 6 6 7 7 7 7 8 8 8 8 8 8 8 9 9 10 10
1 2 2 3 3 4 5 5 5 4 4 3 4 4 4 4 3 4 4 5 5 5 6 6 6 6 7 8 8 8 9 9 8 8 8 9 9 9 10 10 11 11 11
1 3 3 3 4 4 5 5 5 5 5 5 5 5 5 5 5 6 6 7 7 7 7 7 8 8 9 9 9 10 10 10 10 10 10 10 11 11 11 11 12 12 13
2 3 3 4 4 5 6 6 6 6 6 6 6 6 7 6 7 7 7 8 9 9 9 10 10 10 10 11 11 11 11 12 12 12 12 13 13 13 13 13 13 14 14
4 4 4 5 5 6 6 7 8 8 8 8 8 8 8 8 9 9 9 10 10 11 11 11 11 12 12 12 13 13 13 13 13 14 15 15 15 15 15 15 16 16 16
5 5 5 5 6 6 7 8 9 9 10 10 10 10 10 11 11 11 12 12 13 13 12 13 13 13 14 14 15 15 15 15 16 16 17 17 17 17 17 17 17 17 17
5 6 6 6 6 7 8 9 10 10 11 11 12 12 12 12 13 13 13 14 14 15 15 15 15 15 16 16 16 17 17 17 18 17 17 18 18 19 19 19 19 19 20
5 6 7 7 8 8 9 10 10 11 11 12 12 13 14 14 14 14 14 15 15 15 16 16 17 17 18 18 19 19 19 19 19 19 19 19 19 20 20 20 21 21 22
5 5 7 7 8 8 8 8 9 11 11 12 13 14 14 14 14 14 15 15 16 17 17 18 18 18 19 19 20 20 21 20 20 20 21 21 22 22 22 23 23 24 24
5 6 6 7 8 7 8 9 9 10 11 13 14 15 15 15 15 16 17 17 18 19 19 19 19 19 20 20 21 21 22 22 22 22 23 23 24 24 25 25 25 25 25
5 6 7 7 8 8 9 9 10 11 12 13 14 15 16 16 17 17 18 19 19 20 21 21 21 22 22 22 22 22 23 23 23 24 25 25 26 27 26 26 26 27 27
7 7 8 8 9 10 10 11 11 12 13 14 14 15 16 17 18 19 19 20 21 21 21 22 24 24 24 24 24 25 25 25 25 26 26 27 28 28 29 28 27 27 27
8 8 9 9 10 11 11 12 12 13 14 14 15 15 16 17 19 19 20 21 22 23 22 23 24 25 25 25 25 25 24 24 26 27 27 28 28 28 28 28 29 29 29
9 9 9 10 11 11 12 12 13 13 14 14 15 16 16 17 18 19 21 22 23 23 23 23 25 26 26 26 26 26 25 25 26 26 28 28 28 28 28 29 29 29 30
10 10 11 11 12 12 13 13 14 14 14 15 16 16 17 18 18 19 20 21 22 23 24 23 24 25 26 26 26 26 26 26 26 27 28 28 29 29 29 29 29 30 31
11 11 12 12 13 13 14 14 14 14 15 15 16 16 17 18 19 20 20 21 22 23 23 24 24 25 25 25 25 26 26 27 27 28 28 29 29 29 30 30 31 31 32
13 13 13 14 14 14 14 15 15 15 16 17 17 18 19 20 21 22 22 23 23 24 24 24 24 24 25 24 25 26 27 28 28 28 28 29 30 30 31 31 32 32 33
13 13 14 14 15 16 16 16 16 16 17 17 18 19 20 20 21 22 22 23 23 23 24 24 24 24 24 25 25 27 27 28 29 29 30 30 31 32 33 33 34 34 35
13 14 15 15 16 17 16 16 17 18 18 18 19 20 21 22 22 22 22 23 24 24 24 24 24 24 25 26 27 28 28 28 29 30 31 32 32 32 33 34 34 34 35
15 16 16 17 17 17 17 18 18 19 19 19 20 20 21 22 22 23 23 23 23 24 24 24 25 25 26 27 27 28 29 29 30 31 32 32 32 32 33 34 35 35 36
16 17 18 17 17 18 19 19 20 20 20 21 21 22 22 22 23 23 23 24 24 25 25 26 26 27 27 27 28 28 29 30 30 31 32 32 33 34 34 35 35 36 37
17 17 17 17 17 18 19 19 20 21 22 22 22 22 22 23 23 24 24 25 26 26 27 27 28 28 29 29 30 31 31 31 32 32 33 34 34 34 35 36 37 37 38
18 18 18 17 17 18 18 19 20 21 22 23 23 24 24 25 25 26 26 26 27 27 28 29 30 30 30 31 32 33 33 33 33 34 34 35 35 36 36 36 37 37 37
Wind_Direction
138 141 132 137 137 149 143 144 153 161 158 166 171 168 144 129 133 120 70 37 18 357 340 335 339 339 336 330 326 318 315 318 310 305 303 311 312 305 289 289 290 289 291
140 162 171 172 166 172 172 167 174 174 180 175 177 182 185 181 165 210 324 352 349 338 327 325 326 324 326 326 321 313 311 310 301 293 292 295 295 295 292 284 281 284 287
152 183 195 199 190 187 188 189 184 182 189 187 190 196 205 217 236 265 272 292 313 316 315 313 315 316 316 314 310 307 306 305 303 295 288 286 289 290 289 283 282 283 286
198 193 194 204 201 199 198 193 190 189 192 199 207 214 229 247 255 270 275 281 294 304 307 306 304 302 304 305 303 302 303 300 299 298 292 288 287 288 286 283 283 285 286
210 211 210 204 203 210 207 203 205 210 216 220 218 222 237 253 259 268 279 284 290 297 298 299 299 298 298 298 296 295 295 296 294 292 292 291 288 288 287 285 285 286 288
215 219 220 223 221 221 217 214 218 221 230 237 240 241 247 254 261 270 277 280 284 289 290 292 294 295 295 295 292 291 291 290 289 286 286 287 287 287 286 285 285 285 287
239 227 236 232 233 237 233 234 235 236 240 248 251 253 256 263 271 275 279 279 281 285 286 287 290 294 295 292 290 290 290 289 286 284 283 282 284 285 285 284 284 285 287
255 243 243 245 246 245 242 242 242 245 249 254 255 258 261 266 273 278 280 280 283 284 284 287 287 288 291 289 288 287 288 287 286 282 282 283 283 283 282 282 283 284 285
261 256 254 251 248 251 254 247 247 249 254 257 260 265 269 271 272 276 279 280 282 283 283 284 285 287 288 286 285 284 285 284 284 285 283 282 282 282 281 280 281 282 283
259 258 258 256 256 257 254 253 253 255 260 261 264 267 271 273 274 276 279 280 281 282 285 285 285 285 287 286 285 285 284 284 282 283 283 283 282 282 280 280 280 281 281
273 262 260 263 266 265 263 261 260 263 265 267 267 269 272 274 276 276 277 279 280 282 285 287 287 287 286 286 287 286 285 284 280 280 282 283 282 283 282 280 280 280 281
277 269 257 264 270 271 268 268 266 266 265 267 270 271 271 273 275 274 277 279 281 283 286 288 288 288 288 286 286 285 283 282 280 280 282 282 282 282 281 280 279 280 280
282 277 267 269 272 274 272 273 273 269 269 271 273 273 272 272 274 275 276 278 281 283 285 287 288 288 288 290 289 286 283 281 280 280 282 282 281 281 280 279 279 279 280
283 280 277 279 279 278 272 272 273 274 275 276 276 275 275 277 278 278 277 278 280 282 284 286 286 287 288 289 287 286 284 282 281 282 283 281 281 281 280 280 280 279 279
280 280 280 282 284 282 278 273 272 275 276 279 280 280 278 278 278 279 279 279 281 282 283 285 284 284 286 288 287 286 284 282 282 282 283 283 282 282 282 281 280 278 279
279 281 285 286 286 284 280 278 275 277 278 279 281 281 281 279 278 279 281 282 283 284 285 285 285 286 286 286 286 287 286 285 284 282 283 283 283 281 283 281 280 280 281
279 277 283 288 289 287 287 286 281 280 280 283 283 281 281 282 283 285 285 284 284 284 285 285 284 284 287 287 288 289 288 288 288 286 284 282 282 282 282 282 281 279 280
283 281 282 288 290 289 288 287 283 283 284 285 283 283 283 284 286 288 287 287 286 286 287 286 285 285 287 287 287 287 288 289 288 287 287 284 281 280 280 281 281 281 282
283 285 286 287 288 288 286 285 283 285 287 287 287 286 287 288 288 289 290 290 291 290 290 289 288 287 288 288 286 287 289 289 289 288 286 284 283 282 282 281 281 283 285
282 281 284 285 287 288 289 288 285 286 287 288 289 288 287 288 289 289 290 291 292 292 291 290 289 288 289 289 288 288 289 289 290 290 288 285 283 284 284 283 283 284 286
291 285 285 285 285 286 287 289 287 287 288 287 289 290 290 290 291 291 291 291 292 294 293 292 292 291 290 289 290 291 290 290 290 289 289 287 284 284 284 283 284 285 285
296 293 292 290 286 284 285 288 290 292 292 291 292 293 293 292 293 292 291 291 292 293 294 294 294 292 292 291 292 292 291 291 292 291 290 289 286 285 287 287 286 286 286
295 294 294 290 287 285 285 286 288 291 293 293 293 294 293 293 293 293 291 291 292 293 293 294 294 294 294 294 294 294 293 293 293 293 292 291 288 288 288 288 287 287 287
295 294 293 292 290 288 287 287 290 293 294 294 295 293 293 293 294 294 293 292 292 292 292 293 294 294 294 294 294 294 294 294 294 294 294 293 292 291 290 288 288 289 289
294 295 298 293 290 290 290 290 291 292 293 294 294 294 293 293 294 294 293 292 292 292 293 293 293 294 294 294 295 295 295 294 294 294 294 293 292 291 291 291 291 290 290
295 297 298 295 293 294 294 294 293 293 293 294 295 295 294 294 293 294 292 292 291 292 293 293 293 294 294 294 295 295 296 295 295 294 294 294 293 293 293 293 292 292 292
Height
5897 5898 5898 5899 5900 5901 5902 5902 5903 5903 5904 5904 5905 5906 5906 5907 5907 5907 5908 5908 5908 5908 5908 5908 5907 5907 5907 5907 5907 5906 5906 5906 5906 5906 5906 5906 5905 5905 5905 5905 5905 5905 5905
5897 5898 5899 5899 5900 5901 5902 5902 5903 5903 5904 5905 5905 5906 5907 5907 5907 5908 5908 5908 5908 5908 5908 5908 5907 5907 5907 5906 5906 5906 5906 5905 5905 5905 5905 5905 5905 5904 5904 5904 5904 5904 5904
5897 5898 5899 5899 5900 5901 5901 5902 5903 5904 5904 5905 5905 5906 5907 5907 5907 5908 5908 5908 5908 5908 5907 5907 5907 5907 5906 5906 5906 5905 5905 5905 5904 5904 5904 5904 5903 5903 5903 5903 5903 5902 5902
5897 5898 5898 5899 5900 5901 5901 5902 5903 5904 5904 5905 5905 5906 5907 5907 5907 5907 5907 5907 5907 5907 5907 5907 5906 5906 5906 5905 5905 5905 5904 5904 5903 5903 5902 5902 5902 5902 5901 5901 5901 5901 5900
5897 5898 5898 5899 5899 5900 5901 5902 5902 5903 5904 5904 5905 5906 5906 5906 5906 5906 5906 5906 5906 5906 5906 5906 5905 5905 5904 5904 5904 5903 5903 5903 5902 5902 5901 5901 5900 5900 5899 5899 5899 5899 5898
5896 5897 5898 5898 5899 5900 5900 5901 5902 5902 5903 5904 5904 5905 5905 5905 5905 5905 5905 5905 5905 5905 5904 5904 5904 5903 5903 5902 5902 5901 5901 5901 5900 5900 5899 5899 5898 5898 5897 5897 5896 5896 5896
5896 5897 5897 5898 5898 5899 5899 5900 5901 5901 5902 5903 5903 5903 5904 5904 5904 5904 5904 5904 5904 5903 5903 5902 5902 5902 5901 5900 5900 5899 5899 5898 5898 5897 5897 5896 5896 5895 5895 5894 5894 5893 5893
5895 5896 5897 5897 5898 5898 5898 5899 5899 5900 5901 5901 5901 5902 5902 5903 5902 5902 5902 5902 5902 5901 5901 5900 5900 5899 5899 5898 5898 5897 5896 5896 5895 5894 5894 5893 5893 5892 5891 5891 5890 5890 5889
5894 5895 5895 5896 5896 5896 5897 5897 5898 5898 5899 5899 5899 5900 5900 5900 5900 5900 5900 5900 5899 5899 5898 5898 5897 5897 5896 5895 5894 5894 5893 5893 5892 5891 5890 5890 5889 5889 5888 5887 5887 5886 5885
5893 5893 5894 5894 5894 5895 5895 5895 5896 5896 5897 5897 5897 5898 5898 5898 5898 5898 5897 5897 5896 5896 5895 5894 5894 5893 5893 5892 5891 5890 5890 5889 5888 5887 5886 5886 5885 5884 5884 5883 5882 5882 5881
5892 5892 5892 5892 5893 5893 5893 5893 5894 5894 5894 5895 5895 5895 5895 5895 5895 5894 5894 5894 5893 5892 5892 5891 5890 5890 5889 5888 5887 5887 5886 5885 5884 5883 5882 5881 5881 5880 5879 5878 5877 5877 5876
5890 5890 5891 5891 5891 5891 5891 5891 5891 5891 5892 5892 5892 5892 5892 5892 5891 5891 5891 5890 5890 5889 5888 5887 5886 5886 5885 5884 5883 5882 5881 5880 5879 5878 5878 5877 5876 5875 5874 5873 5872 5871 5870
5889 5889 5889 5889 5889 5889 5889 5889 5889 5889 5889 5889 5889 5889 5888 5888 5888 5888 5887 5887 5886 5885 5884 5884 5882 5881 5880 5879 5878 5877 5876 5875 5874 5873 5872 5871 5870 5869 5868 5867 5866 5865 5864
5888 5888 5888 5887 5887 5887 5887 5887 5886 5886 5886 5886 5886 5885 5885 5884 5884 5883 5883 5882 5882 5881 5880 5879 5877 5877 5876 5874 5873 5871 5870 5869 5868 5867 5866 5865 5864 5863 5862 5861 5860 5859 5858
5887 5886 5886 5885 5885 5885 5884 5884 5884 5883 5883 5883 5882 5882 5881 5880 5879 5879 5878 5878 5877 5876 5875 5874 5872 5871 5870 5869 5867 5866 5864 5863 5862 5861 5860 5859 5858 5856 5855 5854 5853 5852 5851
5885 5884 5884 5883 5883 5882 5881 5881 5881 5880 5880 5879 5879 5878 5877 5876 5875 5874 5874 5873 5872 5871 5870 5869 5867 5865 5864 5863 5861 5859 5858 5857 5856 5854 5853 5852 5851 5850 5848 5847 5846 5845 5843
5882 5882 5881 5881 5880 5879 5879 5878 5878 5877 5876 5876 5875 5874 5873 5872 5871 5870 5869 5867 5866 5865 5865 5864 5862 5860 5858 5856 5855 5853 5852 5850 5849 5847 5846 5845 5844 5843 5841 5840 5838 5837 5836
5880 5879 5879 5878 5877 5876 5876 5875 5874 5873 5873 5872 5871 5870 5869 5868 5867 5865 5864 5862 5861 5860 5859 5857 5856 5854 5852 5850 5849 5847 5845 5844 5842 5841 5839 5838 5836 5835 5834 5832 5831 5829 5828
5877 5876 5875 5875 5874 5873 5872 5871 5870 5870 5869 5868 5867 5866 5865 5863 5862 5860 5859 5857 5856 5854 5852 5851 5849 5848 5846 5844 5842 5841 5839 5837 5835 5833 5832 5830 5829 5827 5826 5824 5823 5821 5819
5873 5872 5872 5871 5870 5869 5868 5867 5866 5866 5865 5864 5863 5861 5860 5859 5857 5856 5854 5852 5850 5848 5846 5845 5843 5842 5840 5838 5836 5835 5833 5831 5829 5826 5824 5822 5821 5819 5818 5816 5814 5813 5811
5870 5869 5868 5867 5867 5865 5864 5863 5862 5861 5860 5860 5858 5857 5855 5853 5852 5850 5848 5846 5844 5842 5841 5839 5837 5835 5833 5832 5830 5828 5826 5824 5821 5819 5817 5815 5813 5811 5809 5807 5805 5803 5801
5867 5866 5865 5863 5862 5861 5860 5859 5858 5857 5856 5854 5853 5852 5850 5848 5846 5844 5842 5840 5839 5837 5835 5833 5831 5829 5827 5825 5823 5821 5819 5817 5814 5812 5809 5807 5805 5803 5801 5798 5796 5794 5792
5863 5862 5860 5859 5858 5857 5855 5854 5853 5852 5851 5849 5848 5846 5844 5842 5840 5838 5836 5835 5833 5830 5829 5827 5825 5823 5821 5818 5816 5814 5811 5809 5807 5804 5801 5799 5796 5794 5792 5789 5787 5785 5782
5859 5857 5856 5854 5853 5852 5851 5850 5848 5847 5845 5844 5842 5841 5839 5837 5835 5833 5831 5829 5826 5824 5822 5820 5818 5816 5814 5811 5809 5806 5804 5801 5799 5796 5793 5791 5788 5785 5783 5780 5777 5775 5772
5855 5853 5851 5850 5848 5847 5845 5844 5843 5842 5840 5838 5836 5834 5833 5831 5829 5827 5825 5822 5820 5818 5815 5813 5811 5809 5806 5804 5801 5798 5796 5793 5790 5788 5785 5782 5779 5776 5773 5770 5767 5764 5762
5850 5848 5847 5845 5843 5842 5840 5839 5838 5836 5834 5833 5831 5828 5826 5824 5822 5820 5817 5815 5813 5811 5808 5806 5804 5801 5798 5796 5793 5790 5787 5784 5782 5779 5776 5773 5769 5766 5763 5760 5757 5754 5751